Starlink 30807

operational
NORAD ID: 58192 Int'l Des: 2023-167 Owner: SPXS Country: US Constellation: starlink
LEOCIRCULAR

About Starlink 30807

Description loading...

Live Position

Loading 3D Globe...

Upcoming Passes

Altitude History

Altitude vs Time

uPlot chart will show altitude changes over time

Two-Line Element Set

1 58192U 23167T 25312.63203894 .00012678 00000-0 95146-3 0 9994
2 58192 43.0048 83.8433 0001448 270.7721 89.2955 15.02552165112743
Epoch: Nov 8, 2025 • Age: 43 hours

Current Status

Altitude 560.7 km
Velocity 7.58 km/s
Sub-Earth Point -13.01°S, 142.39°W
Launch Date Oct 30, 2023
Age 2 years
Type internet

Technical Details

Classification Payload
Mass 730.00 kg
Dry Mass 700.00 kg
Total Mass 730.00 kg
Length 0.30 m
Diameter 4.10 m
Span 29.00 m
Shape Box + pan
Manufacturer SPXS
Bus Type Starlink V2M
Phase Status In Orbit
Owner/State SPXS/US

Large Constellations

Loading constellations...